Weather History for Phoenix Deer Valley, AZ

Change the Weather History Date:

Saturday, November 3, 2012

  Actual Average Record
Temperature  
Mean Temperature 68 °F -  
Max Temperature 82 °F 74 °F 90 °F (2001)
Min Temperature 55 °F 54 °F 46 °F (2004)
Cooling Degree Days 4    
Growing Degree Days 18 (Base 50)    
Moisture  
Dew Point 33 °F    
Average Humidity 27    
Maximum Humidity 40    
Minimum Humidity 17    
Precipitation  
Precipitation 0.00 in - - ()
Sea Level Pressure  
Sea Level Pressure 29.94 in    
Wind  
Wind Speed 2 mph (SW)    
Max Wind Speed 9 mph    
Max Gust Speed -    
Visibility 10 miles    
Events      
Averages and records for this station are not official NWS values.
T = Trace of Precipitation, MM = Missing Value Source: NWS Daily Summary

Daily Weather History Graph

Daily Weather History Graph

Search for Another Location

Airport:

Trip Planner

Search our weather history database for the weather conditions in past years. The results will help you decide how hot, cold, wet, or windy it might be!

Date:

Astronomy

Nov. 03, 2012 Rise Set
Actual Time 6:49 AM MST 5:33 PM MST
Civil Twilight 6:23 AM MST 5:59 PM MST
Nautical Twilight 5:54 AM MST 6:29 PM MST
Astronomical Twilight 5:24 AM MST 6:58 PM MST
Moon 9:22 PM MST (11/3) 10:51 AM MST (11/3)
Length of Visible Light 11h 35m
Length of Day
10h 44m
Waning Gibbous, 79% of the Moon is Illuminated
Nov 3
Waning Gibbous
Nov 6
Last Quarter
Nov 13
New
Nov 20
First Quarter
Nov 28
Full

Hourly Weather History & Observations

Time (MST) Temp. Dew Point Humidity Pressure Visibility Wind Dir Wind Speed Gust Speed Precip Events Conditions
12:53 AM 66.0 °F 30.9 °F 27% 29.88 in 10.0 mi Calm Calm - N/A   Clear
1:53 AM 61.0 °F 32.0 °F 34% 29.89 in 10.0 mi North 3.5 mph - N/A   Clear
2:53 AM 62.1 °F 34.0 °F 35% 29.90 in 10.0 mi East 3.5 mph - N/A   Clear
3:53 AM 60.1 °F 33.1 °F 36% 29.90 in 10.0 mi Calm Calm - N/A   Clear
4:53 AM 57.0 °F 30.9 °F 37% 29.91 in 10.0 mi Calm Calm - N/A   Clear
5:53 AM 55.9 °F 32.0 °F 40% 29.94 in 10.0 mi Calm Calm - N/A   Clear
6:53 AM 55.9 °F 32.0 °F 40% 29.96 in 10.0 mi Calm Calm - N/A   Clear
7:53 AM 61.0 °F 33.1 °F 35% 29.98 in 10.0 mi Calm Calm - N/A   Clear
8:53 AM 70.0 °F 33.1 °F 26% 29.99 in 10.0 mi Calm Calm - N/A   Clear
9:53 AM 73.0 °F 33.1 °F 23% 29.99 in 10.0 mi Calm Calm - N/A   Clear
10:53 AM 75.0 °F 33.1 °F 22% 29.99 in 10.0 mi South 4.6 mph - N/A   Clear
11:53 AM 78.1 °F 35.1 °F 21% 29.97 in 10.0 mi SSW 4.6 mph - N/A   Clear
12:53 PM 80.1 °F 34.0 °F 19% 29.95 in 10.0 mi Calm Calm - N/A   Clear
1:53 PM 82.9 °F 34.0 °F 17% 29.93 in 10.0 mi WSW 6.9 mph - N/A   Clear
2:53 PM 82.0 °F 34.0 °F 18% 29.92 in 10.0 mi SW 5.8 mph - N/A   Clear
3:53 PM 82.9 °F 34.0 °F 17% 29.92 in 10.0 mi SW 6.9 mph - N/A   Clear
4:53 PM 82.0 °F 35.1 °F 18% 29.92 in 10.0 mi SW 5.8 mph - N/A   Clear
5:53 PM 79.0 °F 35.1 °F 20% 29.93 in 10.0 mi West 5.8 mph - N/A   Clear
6:53 PM 75.9 °F 35.1 °F 23% 29.94 in 10.0 mi Calm Calm - N/A   Clear
7:53 PM 73.0 °F 35.1 °F 25% 29.95 in 10.0 mi Calm Calm - N/A   Clear
8:53 PM 69.1 °F 33.1 °F 26% 29.96 in 10.0 mi Calm Calm - N/A   Clear
9:53 PM 69.1 °F 34.0 °F 27% 29.97 in 10.0 mi NNE 9.2 mph - N/A   Clear
10:53 PM 68.0 °F 33.1 °F 27% 29.98 in 10.0 mi Calm Calm - N/A   Clear
11:53 PM 66.9 °F 33.1 °F 28% 29.98 in 10.0 mi NE 3.5 mph - N/A   Clear